"2010-08-06 00:00:00",46381,0.939,131.4,9.15,0.253,21.59,109.6068,23.88,24.76,34.33,0,111.2,13.1,24.72,93.4
"2010-08-06 00:00:30",46382,1.059,130.2,4.407,0.133,21.63,109.599,23.86,24.75,34.31,0,111.2,13.1,24.70,92.2
"2010-08-06 00:01:00",46383,1.22,139.1,11.18,0.186,21.62,109.596,23.86,24.74,34.42,0,111.2,13.1,24.69,101.1
"2010-08-06 00:01:30",46384,1.282,150.2,4.584,0.257,21.67,109.596,23.86,24.73,34.34,0,111.2,13.09,24.69,112.2
"2010-08-06 00:02:00",46385,0.856,165.9,13.23,0.142,21.69,109.596,23.86,24.73,34.43,0,111.2,13.09,24.69,127.9
"2010-08-06 00:02:30",46386,1.001,175.2,6.933,0.089,21.72,109.5951,23.85,24.72,34.3,0,111.2,13.09,24.69,137.2
"2010-08-06 00:03:00",46387,1.266,168.5,3.644,0.097,21.75,109.5957,23.86,24.71,33.97,0,111.2,13.09,24.69,130.5
"2010-08-06 00:03:30",46388,1.501,175.7,5.884,0.109,21.76,109.596,23.86,24.72,33.55,0,111.2,13.09,24.69,137.7
"2010-08-06 00:04:00",46389,1.243,173.9,4.508,0.207,21.79,109.596,23.86,24.71,33.61,0,111.2,13.09,24.69,135.9
"2010-08-06 00:04:30",46390,1.176,173.3,3.638,0.124,21.75,109.596,23.86,24.72,33.63,0,111.2,13.09,24.69,135.3
"2010-08-06 00:05:00",46391,0.947,174.1,9.73,0.195,21.75,109.596,23.86,24.73,33.59,0,111.2,13.09,24.69,136.1
"2010-08-06 00:05:30",46392,0.86,179.1,13.36,0.104,21.71,109.596,23.86,24.73,33.48,0,111.2,13.09,24.69,141.1
"2010-08-06 00:06:00",46393,0.825,174.6,8.79,0.11,21.72,109.596,23.86,24.72,33.46,0,111.2,13.1,24.69,136.6
"2010-08-06 00:06:30",46394,0.957,188.6,11.8,0.195,21.74,109.596,23.86,24.73,33.44,0,111.2,13.1,24.69,150.6
"2010-08-06 00:07:00",46395,1.121,186.5,11.48,0.139,21.77,109.596,23.86,24.72,33.48,0,111.2,13.1,24.69,148.5
"2010-08-06 00:07:30",46396,1.07,193.2,7.424,0.145,21.73,109.5963,23.86,24.74,33.49,0,111.2,13.1,24.69,155.2
"2010-08-06 00:08:00",46397,1.245,197.6,2.428,0.126,21.76,109.596,23.86,24.73,33.53,0,111.2,13.1,24.69,159.6
"2010-08-06 00:08:30",46398,1.349,189.7,13.75,0.205,21.8,109.596,23.86,24.73,33.66,0,111.2,13.1,24.69,151.7
"2010-08-06 00:09:00",46399,0.892,173.1,6.604,0.147,21.79,109.5988,23.86,24.74,33.71,0,111.2,13.1,24.70,135.1
"2010-08-06 00:09:30",46400,0.973,192.8,11.38,0.178,21.76,109.6049,23.88,24.73,33.67,0,111.2,13.1,24.71,154.8
"2010-08-06 00:10:00",46401,1.115,180.8,12.45,0.144,21.76,109.6041,23.88,24.73,33.68,0,111.2,13.1,24.71,142.8
"2010-08-06 00:10:30",46402,1.149,169.5,4.141,0.2,21.73,109.6038,23.88,24.74,33.67,0,111.2,13.1,24.71,131.5
"2010-08-06 00:11:00",46403,1.014,173.5,4.373,0.105,21.73,109.6035,23.88,24.72,33.9,0,111.2,13.1,24.71,135.5
"2010-08-06 00:11:30",46404,0.914,185.8,10.59,0.191,21.75,109.5945,23.85,24.74,33.89,0,111.2,13.1,24.69,147.8
"2010-08-06 00:12:00",46405,1.145,185.3,5.505,0.137,21.78,109.5931,23.85,24.73,33.81,0,111.2,13.1,24.68,147.3
"2010-08-06 00:12:30",46406,0.751,190.8,8.5,0.17,21.75,109.5941,23.85,24.73,33.87,0,111.2,13.11,24.69,152.8
"2010-08-06 00:13:00",46407,0.681,195,7.306,0.198,21.74,109.5926,23.85,24.73,33.89,0,111.2,13.1,24.68,157.0
"2010-08-06 00:13:30",46408,0.58,208.1,8.01,0.213,21.7,109.5913,23.84,24.72,33.9,0,111.2,13.11,24.68,170.1
"2010-08-06 00:14:00",46409,0.384,225.9,10.01,0.094,21.68,109.5897,23.84,24.72,34.07,0,111.2,13.11,24.68,187.9
"2010-08-06 00:14:30",46410,0.237,189.3,15.86,0.221,21.76,109.5903,23.84,24.7,34.11,0,111.2,13.1,24.68,151.3
"2010-08-06 00:15:00",46411,0.469,199.2,6.425,0.203,21.72,109.5915,23.85,24.71,34.12,0,111.2,13.11,24.68,161.2
"2010-08-06 00:15:30",46412,0.502,206.9,8.57,0.099,21.83,109.5924,23.85,24.71,34.55,0,111.2,13.11,24.68,168.9
"2010-08-06 00:16:00",46413,0.357,205.8,8.13,0.215,21.76,109.5933,23.85,24.71,34.26,0,111.2,13.11,24.68,167.8
"2010-08-06 00:16:30",46414,0.684,182.8,8.57,0.283,21.71,109.5952,23.85,24.7,34.18,0,111.2,13.11,24.69,144.8
"2010-08-06 00:17:00",46415,0.758,189.6,8.39,0.074,21.67,109.593,23.85,24.7,34.13,0,111.2,13.11,24.68,151.6
"2010-08-06 00:17:30",46416,0.734,216.1,9.18,0.093,21.66,109.5811,23.82,24.69,34.13,0,111.2,13.11,24.65,178.1
"2010-08-06 00:18:00",46417,0.695,228.1,3.091,0.084,21.65,109.5761,23.81,24.69,34.13,0,111.2,13.11,24.64,190.1
"2010-08-06 00:18:30",46418,0.934,238.3,3.994,0.091,21.65,109.5722,23.8,24.69,34.09,0,111.2,13.11,24.63,200.3
"2010-08-06 00:19:00",46419,1.201,234.4,7.464,0.128,21.71,109.5697,23.79,24.67,34.14,0,111.2,13.11,24.62,196.4
"2010-08-06 00:19:30",46420,1.038,226.3,5.369,0.151,21.7,109.5661,23.78,24.67,34.19,0,111.2,13.1,24.61,188.3
"2010-08-06 00:20:00",46421,0.735,246,22.19,0.227,21.76,109.5664,23.78,24.66,34.24,0,111.2,13.11,24.62,208.0
"2010-08-06 00:20:30",46422,0.596,261.9,17.51,0.111,21.75,109.5692,23.79,24.66,34.26,0,111.2,13.11,24.62,223.9
"2010-08-06 00:21:00",46423,0.241,266.6,26.58,0.165,21.82,109.5728,23.8,24.67,34.38,0,111.2,13.11,24.63,228.6
"2010-08-06 00:21:30",46424,0.903,225.7,12.82,0.356,21.79,109.5748,23.8,24.67,34.34,0,111.2,13.11,24.64,187.7
"2010-08-06 00:22:00",46425,0.542,228.1,13,0.209,21.79,109.5742,23.8,24.68,34.32,0,111.2,13.11,24.64,190.1
"2010-08-06 00:22:30",46426,0.572,245.1,45.24,0.219,21.84,109.5739,23.8,24.68,34.37,0,111.2,13.11,24.63,207.1
"2010-08-06 00:23:00",46427,0.575,322.1,16.78,0.291,21.88,109.5753,23.8,24.67,34.32,0,111.2,13.11,24.64,284.1
"2010-08-06 00:23:30",46428,0.976,343.6,6.367,0.395,21.79,109.579,23.81,24.68,34.33,0,111.2,13.11,24.65,305.6
"2010-08-06 00:24:00",46429,1.26,338.5,7.85,0.105,21.81,109.5717,23.79,24.69,34.38,0,111.2,13.11,24.63,300.5
"2010-08-06 00:24:30",46430,1.055,342,9.37,0.211,21.77,109.5655,23.78,24.68,34.48,0,111.2,13.11,24.61,304.0
"2010-08-06 00:25:00",46431,1.192,331.8,8.57,0.094,21.71,109.5649,23.78,24.68,34.65,0,111.2,13.11,24.61,293.8
"2010-08-06 00:25:30",46432,1.208,329.6,7.85,0.11,21.72,109.552,23.74,24.66,34.75,0,111.2,13.11,24.58,291.6
"2010-08-06 00:26:00",46433,1.233,330.7,4.415,0.074,21.74,109.54,23.71,24.64,34.81,0,111.2,13.12,24.55,292.7
"2010-08-06 00:26:30",46434,1.613,328.9,4.628,0.408,21.73,109.5333,23.7,24.62,34.71,0,111.2,13.12,24.53,290.9
"2010-08-06 00:27:00",46435,1.713,348.7,9.02,0.387,21.84,109.5321,23.69,24.63,34.81,0,111.1,13.12,24.53,310.7
"2010-08-06 00:27:30",46436,1.841,334.4,7.896,0.173,21.79,109.5338,23.7,24.6,34.75,0,111.1,13.12,24.53,296.4
"2010-08-06 00:28:00",46437,1.787,328.5,5.807,0.128,21.77,109.5345,23.7,24.61,34.8,0,111.1,13.12,24.53,290.5
"2010-08-06 00:28:30",46438,1.666,323.4,2.889,0.172,21.78,109.5349,23.7,24.61,34.75,0,111.1,13.12,24.53,285.4
"2010-08-06 00:29:00",46439,1.673,322.3,6.474,0.085,21.75,109.5346,23.7,24.6,34.51,0,111.1,13.12,24.53,284.3
"2010-08-06 00:29:30",46440,1.696,316,4.446,0.172,21.75,109.5364,23.7,24.6,34.47,0,111.1,13.12,24.54,278.0
"2010-08-06 00:30:00",46441,1.903,331.6,4.4,0.152,21.76,109.5395,23.71,24.6,34.47,0,111.1,13.12,24.55,293.6
"2010-08-06 00:30:30",46442,1.972,321.7,5.052,0.14,21.78,109.5435,23.72,24.6,34.57,0,111.1,13.12,24.56,283.7
"2010-08-06 00:31:00",46443,2.324,324.5,9.82,0.262,21.81,109.545,23.73,24.6,34.12,0,111.1,13.12,24.56,286.5
"2010-08-06 00:31:30",46444,1.746,342,7.01,0.258,21.8,109.5481,23.73,24.59,34.07,0,111.1,13.12,24.57,304.0
"2010-08-06 00:32:00",46445,2.119,331.2,4.779,0.148,21.75,109.5549,23.75,24.59,34.22,0,111.1,13.12,24.59,293.2
"2010-08-06 00:32:30",46446,2.059,319.5,4.308,0.131,21.75,109.5535,23.75,24.58,34.29,0,111.1,13.12,24.58,281.5
"2010-08-06 00:33:00",46447,2.101,322.3,2.267,0.059,21.73,109.556,23.75,24.58,34.4,0,111.1,13.12,24.59,284.3
"2010-08-06 00:33:30",46448,2.466,322.4,3.227,0.181,21.74,109.5504,23.74,24.58,34.26,0,111.1,13.12,24.57,284.4
"2010-08-06 00:34:00",46449,2.716,327,2.307,0.176,21.73,109.5387,23.71,24.58,33.45,0,111.1,13.12,24.54,289.0
"2010-08-06 00:34:30",46450,2.472,321.9,5.134,0.132,21.7,109.5373,23.71,24.57,33.48,0,111.1,13.12,24.54,283.9
"2010-08-06 00:35:00",46451,2.366,314.6,2.585,0.258,21.69,109.5328,23.69,24.58,33.99,0,111.1,13.12,24.53,276.6
"2010-08-06 00:35:30",46452,1.84,313.7,3.063,0.097,21.7,109.5303,23.69,24.56,34.24,0,111.1,13.12,24.52,275.7
"2010-08-06 00:36:00",46453,1.578,336.5,12.62,0.185,21.71,109.5273,23.68,24.57,34.25,0,111.1,13.12,24.51,298.5
"2010-08-06 00:36:30",46454,1.738,315.7,6.746,0.27,21.63,109.5288,23.68,24.56,34.01,0,111.1,13.11,24.52,277.7
"2010-08-06 00:37:00",46455,2.42,316.2,1.966,0.111,21.52,109.5298,23.69,24.56,33.44,0,111.1,13.11,24.52,278.2
"2010-08-06 00:37:30",46456,2.293,316.8,4.029,0.193,21.54,109.5326,23.69,24.55,34.27,0,111.1,13.11,24.53,278.8
"2010-08-06 00:38:00",46457,2.185,320.5,7.235,0.219,21.64,109.5313,23.69,24.55,34.13,0,111.1,13.11,24.53,282.5
"2010-08-06 00:38:30",46458,1.741,338.3,9.6,0.191,21.69,109.535,23.7,24.57,34.02,0,111.1,13.11,24.53,300.3
"2010-08-06 00:39:00",46459,1.872,353.3,6.358,0.142,21.72,109.542,23.72,24.57,34.06,0,111.1,13.11,24.55,315.3
"2010-08-06 00:39:30",46460,1.943,1.908,5.66,0.17,21.77,109.5521,23.74,24.57,33.97,0,111.1,13.11,24.58,323.9
"2010-08-06 00:40:00",46461,1.665,338.5,9.87,0.226,21.78,109.5634,23.77,24.59,33.83,0,111.1,13.12,24.61,300.5
"2010-08-06 00:40:30",46462,1.396,346.5,7.56,0.176,21.77,109.5665,23.78,24.6,33.83,0,111.1,13.12,24.62,308.5
"2010-08-06 00:41:00",46463,1.299,341.1,4.658,0.198,21.79,109.567,23.78,24.61,33.86,0,111.1,13.12,24.62,303.1
"2010-08-06 00:41:30",46464,1.537,339.9,4.403,0.24,21.86,109.5687,23.79,24.61,33.87,0,111.1,13.12,24.62,301.9
"2010-08-06 00:42:00",46465,1.834,347.5,3.036,0.127,21.9,109.5687,23.79,24.63,34.01,0,111.1,13.12,24.62,309.5
"2010-08-06 00:42:30",46466,1.476,358.5,11.21,0.115,21.88,109.5698,23.79,24.64,33.98,0,111.1,13.12,24.62,320.5
"2010-08-06 00:43:00",46467,1.349,25.44,7.905,0.118,21.84,109.58,23.82,24.66,33.93,0,111.1,13.12,24.65,347.4
"2010-08-06 00:43:30",46468,1.514,35.05,4.64,0.185,21.85,109.5929,23.85,24.66,34.24,0,111.1,13.12,24.68,357.0
"2010-08-06 00:44:00",46469,1.746,38.81,5.069,0.298,21.85,109.5906,23.84,24.68,34.22,0,111.1,13.12,24.68,0.8
"2010-08-06 00:44:30",46470,1.778,30.35,5.148,0.215,21.78,109.5749,23.8,24.68,33.4,0,111.1,13.12,24.64,352.4
"2010-08-06 00:45:00",46471,1.983,34.86,5.136,0.259,21.77,109.5687,23.79,24.68,33.47,0,111.1,13.12,24.62,356.9
"2010-08-06 00:45:30",46472,2.597,34.8,6.768,0.331,21.82,109.5687,23.79,24.66,33.55,0,111.1,13.12,24.62,356.8
"2010-08-06 00:46:00",46473,3.091,36.73,4.697,0.309,21.72,109.5687,23.79,24.66,33.12,0,111.1,13.12,24.62,358.7
"2010-08-06 00:46:30",46474,3.159,26.75,4.231,0.221,21.69,109.5634,23.77,24.64,33.07,0,111.1,13.13,24.61,348.8
"2010-08-06 00:47:00",46475,3.202,18.19,2.279,0.294,21.68,109.5527,23.75,24.64,33.24,0,111.1,13.13,24.58,340.2
"2010-08-06 00:47:30",46476,3.162,13.04,4.126,0.229,21.7,109.5463,23.73,24.64,33.24,0,111.1,13.13,24.56,335.0
"2010-08-06 00:48:00",46477,3.167,33.58,7.134,0.185,21.67,109.5401,23.71,24.63,33.27,0,111.1,13.13,24.55,355.6
"2010-08-06 00:48:30",46478,2.731,36.53,2.187,0.219,21.69,109.535,23.7,24.63,33.3,0,111.1,13.13,24.53,358.5
"2010-08-06 00:49:00",46479,2.502,40.01,3.4,0.158,21.67,109.5353,23.7,24.61,33.49,0,111.1,13.13,24.54,2.0
"2010-08-06 00:49:30",46480,2.389,30.73,4.445,0.188,21.66,109.536,23.7,24.62,33.49,0,111.1,13.13,24.54,352.7
"2010-08-06 00:50:00",46481,2.789,31.81,5.182,0.421,21.57,109.5378,23.71,24.63,33.33,0,111.1,13.13,24.54,353.8
"2010-08-06 00:50:30",46482,2.971,30.4,3.118,0.272,21.54,109.5421,23.72,24.62,33.39,0,111.1,13.13,24.55,352.4
"2010-08-06 00:51:00",46483,3.456,25.79,2.722,0.23,21.49,109.5406,23.71,24.61,33.42,0,111.1,13.13,24.55,347.8
"2010-08-06 00:51:30",46484,3.379,19.86,3.398,0.208,21.49,109.5433,23.72,24.61,33.33,0,111.1,13.13,24.56,341.9
"2010-08-06 00:52:00",46485,3.387,25.4,3.073,0.17,21.43,109.5455,23.73,24.63,33.5,0,111.1,13.13,24.56,347.4
"2010-08-06 00:52:30",46486,3.324,29.49,1.646,0.112,21.34,109.5486,23.73,24.61,33.58,0,111.1,13.13,24.57,351.5
"2010-08-06 00:53:00",46487,3.366,25.87,2.106,0.207,21.36,109.5541,23.75,24.61,33.49,0,111.1,13.13,24.58,347.9
"2010-08-06 00:53:30",46488,3.038,24.67,3.678,0.279,21.36,109.5553,23.75,24.59,33.39,0,111.1,13.13,24.59,346.7
"2010-08-06 00:54:00",46489,3.051,23.13,1.978,0.327,21.37,109.5569,23.76,24.6,33.21,0,111.1,13.13,24.59,345.1
"2010-08-06 00:54:30",46490,2.933,26.69,2.298,0.225,21.35,109.5575,23.76,24.61,33.37,0,111.1,13.12,24.59,348.7
"2010-08-06 00:55:00",46491,2.965,22.15,4.707,0.375,21.35,109.5606,23.77,24.61,33.82,0,111.1,13.13,24.60,344.1
"2010-08-06 00:55:30",46492,3.314,24.96,3.642,0.353,21.3,109.5609,23.77,24.6,33.55,0,111.1,13.13,24.60,347.0
"2010-08-06 00:56:00",46493,3.425,27.81,2.384,0.383,21.27,109.5606,23.77,24.6,33.28,0,111.1,13.13,24.60,349.8
"2010-08-06 00:56:30",46494,3.38,27.52,1.826,0.23,21.29,109.5555,23.75,24.59,33.09,0,111.1,13.13,24.59,349.5
"2010-08-06 00:57:00",46495,3.829,24.43,1.462,0.242,21.41,109.5484,23.73,24.58,33.03,0,111.1,13.13,24.57,346.4
"2010-08-06 00:57:30",46496,3.878,28.04,2.189,0.388,21.45,109.541,23.72,24.6,32.98,0,111.1,13.13,24.55,350.0
"2010-08-06 00:58:00",46497,3.855,22.83,3.963,0.366,21.55,109.5368,23.7,24.58,33.21,0,111.1,13.13,24.54,344.8
"2010-08-06 00:58:30",46498,2.53,10.25,11.84,1.024,21.57,109.5345,23.7,24.57,35.59,0,111.1,13.13,24.53,332.2
"2010-08-06 00:59:00",46499,3.604,15.31,5.992,1.418,21.33,109.5264,23.68,24.56,36.12,0,111.1,13.13,24.51,337.3
"2010-08-06 00:59:30",46500,2.725,9.51,3.792,0.606,21.37,109.5,23.61,24.54,35.82,0,111.1,13.13,24.44,331.5
"2010-08-06 01:00:00",46501,4.362,18.94,4.651,0.693,21.28,109.4922,23.59,24.5,35.61,0,111.1,13.13,24.42,340.9
"2010-08-06 01:00:30",46502,4.599,20.07,2.499,0.237,21.23,109.4697,23.53,24.46,35.39,0,111.1,13.13,24.37,342.1
"2010-08-06 01:01:00",46503,4.079,17.74,2.46,0.382,21.24,109.4616,23.51,24.46,34.9,0,111.1,13.13,24.35,339.7
"2010-08-06 01:01:30",46504,2.935,13.65,4.805,0.702,21.26,109.4613,23.51,24.43,34.8,0,111.1,13.13,24.34,335.6
"2010-08-06 01:02:00",46505,2.782,13.07,3.759,0.562,21.24,109.4616,23.51,24.42,34.93,0,111.1,13.13,24.35,335.1
"2010-08-06 01:02:30",46506,3.351,15.1,2.767,0.446,21.2,109.4616,23.51,24.42,34.73,0,111.1,13.13,24.35,337.1
"2010-08-06 01:03:00",46507,3.531,15.47,2.419,0.436,21.09,109.4622,23.51,24.4,34.54,0,111.1,13.13,24.35,337.5
"2010-08-06 01:03:30",46508,4.127,10.92,6.043,0.52,20.99,109.4616,23.51,24.42,34.78,0,111.1,13.13,24.35,332.9
"2010-08-06 01:04:00",46509,4.62,17.87,2.187,0.536,20.89,109.4453,23.47,24.38,35.43,0,111.1,13.13,24.30,339.9
"2010-08-06 01:04:30",46510,4.957,18.4,1.682,0.339,20.94,109.4276,23.42,24.35,35.35,0,111.1,13.13,24.26,340.4
"2010-08-06 01:05:00",46511,5.259,22.09,2.738,0.544,20.98,109.4021,23.36,24.32,36.52,0,111.1,13.13,24.19,344.1
"2010-08-06 01:05:30",46512,5.191,23.13,2.489,0.311,21.07,109.3788,23.3,24.27,36.07,0,111.1,13.13,24.13,345.1
"2010-08-06 01:06:00",46513,5.104,24.14,2.159,0.396,21.14,109.3605,23.25,24.2,35.03,0,111.1,13.13,24.08,346.1
"2010-08-06 01:06:30",46514,5.2,24.22,2.592,0.384,21.16,109.3597,23.25,24.17,34.86,0,111.1,13.13,24.08,346.2
"2010-08-06 01:07:00",46515,4.494,24.96,3.01,0.486,21.27,109.3546,23.24,24.15,34.56,0,111.1,13.13,24.07,347.0
"2010-08-06 01:07:30",46516,5.316,19.87,1.2,0.273,21.05,109.3376,23.19,24.14,36.32,0,111.1,13.13,24.03,341.9
"2010-08-06 01:08:00",46517,5.101,21.09,1.559,0.217,21.11,109.3257,23.16,24.11,36.24,0,111.1,13.13,24.00,343.1
"2010-08-06 01:08:30",46518,5.33,19.63,1.414,0.499,21.15,109.3089,23.12,24.08,36.32,0,111.1,13.13,23.95,341.6
"2010-08-06 01:09:00",46519,5.445,21.06,1.58,0.264,21.2,109.2949,23.08,24.06,36.18,0,111.1,13.13,23.92,343.1
"2010-08-06 01:09:30",46520,5.566,19.5,2.53,0.679,21.19,109.2944,23.08,24.02,36.19,0,111.1,13.13,23.91,341.5
"2010-08-06 01:10:00",46521,4.835,16.6,1.786,0.576,21.1,109.2738,23.03,24,37.8,0,111.1,13.13,23.86,338.6
"2010-08-06 01:10:30",46522,5.322,17.77,1.162,0.353,21.08,109.2574,22.99,23.96,37.61,0,111.1,13.13,23.82,339.8
"2010-08-06 01:11:00",46523,5.114,17.33,1.612,0.46,21.08,109.2335,22.93,23.91,36.77,0,111.1,13.13,23.76,339.3
"2010-08-06 01:11:30",46524,4.96,16.31,1.437,0.367,21.01,109.2212,22.89,23.86,36.68,0,111.1,13.13,23.73,338.3
"2010-08-06 01:12:00",46525,4.865,16.12,1.44,0.362,21.14,109.202,22.84,23.83,36.44,0,111.1,13.13,23.68,338.1
"2010-08-06 01:12:30",46526,4.804,14.41,3.131,0.556,21.09,109.2012,22.84,23.81,36.28,0,111.1,13.13,23.67,336.4
"2010-08-06 01:13:00",46527,5.088,16.29,1.678,0.57,21.09,109.2001,22.84,23.77,36.33,0,111.1,13.13,23.67,338.3
"2010-08-06 01:13:30",46528,4.132,12.66,2.765,0.599,21,109.1768,22.78,23.73,36.42,0,111.1,13.13,23.61,334.7
"2010-08-06 01:14:00",46529,4.761,14.99,2.211,0.62,20.99,109.1675,22.76,23.7,36.44,0,111.1,13.13,23.59,337.0
"2010-08-06 01:14:30",46530,5.561,16.8,1.572,0.591,21.04,109.1554,22.73,23.66,36.4,0,111.1,13.13,23.56,338.8
"2010-08-06 01:15:00",46531,6.74,19.05,0.938,0.265,21.15,109.1422,22.69,23.65,36.19,0,111.1,13.13,23.52,341.0
"2010-08-06 01:15:30",46532,6.416,18.07,0.987,0.395,21.13,109.1417,22.69,23.65,36.15,0,111.1,13.14,23.52,340.1
"2010-08-06 01:16:00",46533,5.818,17.05,1.748,0.614,20.98,109.1369,22.68,23.63,36.17,0,111.1,13.14,23.51,339.0
"2010-08-06 01:16:30",46534,4.718,13.6,2.154,0.463,20.91,109.1268,22.65,23.6,35.93,0,111.1,13.14,23.48,335.6
"2010-08-06 01:17:00",46535,4.525,8.14,4.996,0.368,20.77,109.104,22.59,23.56,36.23,0,111.1,13.14,23.42,330.1
"2010-08-06 01:17:30",46536,4.784,12.55,4.578,0.983,20.52,109.0745,22.52,23.5,38.07,0,111.1,13.14,23.35,334.5
"2010-08-06 01:18:00",46537,5.053,11.22,6.418,1.7,20.39,109.0206,22.38,23.43,40.57,0,111.1,13.14,23.21,333.2
"2010-08-06 01:18:30",46538,6.633,9.35,4.092,0.956,20.34,108.9588,22.22,23.32,41.52,0,111.1,13.14,23.05,331.4
"2010-08-06 01:19:00",46539,5.94,14.03,3.702,1.128,20.37,108.9085,22.09,23.21,42.61,0,111.1,13.14,22.92,336.0
"2010-08-06 01:19:30",46540,3.462,8.43,8.18,1.517,20.48,108.8543,21.95,23.09,43.35,0,111.1,13.14,22.78,330.4
"2010-08-06 01:20:00",46541,5.824,15.04,3.487,1.161,20.59,108.8265,21.88,23.02,41.75,0,111.1,13.14,22.71,337.0
"2010-08-06 01:20:30",46542,7.776,18.93,2.004,0.817,20.55,108.8035,21.82,22.95,42.06,0,111.1,13.14,22.65,340.9
"2010-08-06 01:21:00",46543,6.332,16.55,1.339,0.685,20.68,108.7968,21.8,22.89,41.65,0,111.1,13.14,22.63,338.5
"2010-08-06 01:21:30",46544,7.309,17.69,1.728,0.767,20.63,108.7954,21.8,22.85,42.05,0,111.1,13.14,22.63,339.7
"2010-08-06 01:22:00",46545,7.523,19.09,1.17,0.35,20.46,108.7685,21.73,22.8,44.02,0,111.1,13.14,22.56,341.1
"2010-08-06 01:22:30",46546,7.556,19.03,1.209,0.316,20.66,108.7467,21.68,22.73,42.99,0,111.1,13.15,22.50,341.0
"2010-08-06 01:23:00",46547,6.444,17.04,1.469,0.704,20.82,108.7489,21.68,22.7,42.02,0,111,13.15,22.51,339.0
"2010-08-06 01:23:30",46548,5.698,16.1,1.328,0.357,20.72,108.7658,21.72,22.71,42.45,0,111,13.15,22.55,338.1
"2010-08-06 01:24:00",46549,5.189,15.16,1.958,0.316,20.69,108.7618,21.71,22.68,42.66,0,111,13.15,22.54,337.2
"2010-08-06 01:24:30",46550,5.062,12.5,2.646,0.513,20.37,108.7599,21.71,22.64,42.61,0,111,13.15,22.54,334.5
"2010-08-06 01:25:00",46551,6.379,15.96,2.134,0.754,20.37,108.7355,21.65,22.6,42.4,0,111,13.15,22.47,338.0
"2010-08-06 01:25:30",46552,6.693,16.55,2.063,0.599,20.4,108.7136,21.59,22.56,42.42,0,111,13.15,22.42,338.5
"2010-08-06 01:26:00",46553,7.207,17.33,1.057,0.427,20.42,108.6913,21.53,22.5,42.34,0,111,13.15,22.36,339.3
"2010-08-06 01:26:30",46554,7.914,18.26,0.843,0.473,20.42,108.6755,21.49,22.46,42.39,0,111,13.15,22.32,340.3
"2010-08-06 01:27:00",46555,8.33,18.71,0.942,0.314,20.46,108.6639,21.46,22.41,42.24,0,111,13.15,22.29,340.7
"2010-08-06 01:27:30",46556,8.42,18.49,0.759,0.437,20.6,108.6611,21.46,22.38,42.24,0,111,13.14,22.28,340.5
"2010-08-06 01:28:00",46557,7.956,18.17,0.814,0.439,20.82,108.6632,21.46,22.38,42.32,0,111,13.14,22.29,340.2
"2010-08-06 01:28:30",46558,8.53,19.51,0.927,0.256,20.83,108.6649,21.47,22.38,42.22,0,111,13.14,22.29,341.5
"2010-08-06 01:29:00",46559,8.29,19.83,1.334,0.309,20.89,108.675,21.49,22.38,42.09,0,111,13.15,22.32,341.8
"2010-08-06 01:29:30",46560,8.35,18.91,0.747,0.382,20.88,108.6986,21.55,22.41,41.82,0,111,13.15,22.38,340.9
"2010-08-06 01:30:00",46561,8.62,19.37,1.253,0.301,20.93,108.7031,21.56,22.43,41.27,0,111,13.15,22.39,341.4
"2010-08-06 01:30:30",46562,8.94,19.9,0.973,0.326,20.99,108.7281,21.63,22.45,40.9,0,111,13.15,22.46,341.9
"2010-08-06 01:31:00",46563,8.77,19.38,0.949,0.27,20.97,108.7365,21.65,22.5,40.35,0,111,13.15,22.48,341.4
"2010-08-06 01:31:30",46564,8.39,19.16,1.208,0.427,20.99,108.7638,21.72,22.52,39.89,0,111,13.15,22.55,341.2
"2010-08-06 01:32:00",46565,8.13,19.01,1.487,0.579,20.98,108.7695,21.73,22.55,39.95,0,111,13.15,22.56,341.0
"2010-08-06 01:32:30",46566,8.29,18.6,0.875,0.463,21.02,108.7929,21.79,22.59,39.79,0,111,13.15,22.62,340.6
"2010-08-06 01:33:00",46567,8.18,20.16,1.216,0.325,21.06,108.8028,21.82,22.62,39.98,0,111,13.16,22.65,342.2
"2010-08-06 01:33:30",46568,8.14,20.27,0.811,0.32,21.05,108.8163,21.85,22.66,39.42,0,111,13.16,22.68,342.3
"2010-08-06 01:34:00",46569,8.36,19.72,0.912,0.368,21.1,108.8366,21.91,22.7,39.57,0,111,13.16,22.74,341.7
"2010-08-06 01:34:30",46570,7.674,20.68,1.329,0.382,21.1,108.8468,21.93,22.72,39.48,0,111,13.16,22.76,342.7
"2010-08-06 01:35:00",46571,7.498,22.48,1.517,0.521,21.14,108.8627,21.97,22.75,39.35,0,111,13.16,22.80,344.5
"2010-08-06 01:35:30",46572,7.39,21.77,1.578,0.401,21.15,108.8856,22.03,22.78,39.33,0,111,13.16,22.86,343.8
"2010-08-06 01:36:00",46573,6.732,22.96,2.098,0.447,21.17,108.8909,22.05,22.82,39.13,0,111,13.16,22.87,345.0
"2010-08-06 01:36:30",46574,6.448,23.68,1.474,0.424,21.18,108.9093,22.09,22.85,38.88,0,110.9,13.16,22.92,345.7
"2010-08-06 01:37:00",46575,6.739,20.13,1.207,0.58,21.17,108.9281,22.14,22.89,38.77,0,110.9,13.16,22.97,342.1
"2010-08-06 01:37:30",46576,6.815,20.83,1.944,0.53,21.16,108.9284,22.14,22.91,38.89,0,111,13.16,22.97,342.8
"2010-08-06 01:38:00",46577,6.362,23.68,1.073,0.477,21.07,108.9287,22.14,22.94,39.13,0,110.9,13.16,22.97,345.7
"2010-08-06 01:38:30",46578,5.798,24.36,1.394,0.411,21.13,108.929,22.14,22.96,39.01,0,110.9,13.16,22.97,346.4
"2010-08-06 01:39:00",46579,5.535,24.68,1.084,0.283,21.07,108.933,22.15,22.95,39.28,0,110.9,13.16,22.98,346.7
"2010-08-06 01:39:30",46580,5.074,25.48,1.013,0.196,21.04,108.9336,22.16,22.96,39.61,0,110.9,13.16,22.98,347.5
"2010-08-06 01:40:00",46581,4.778,26.78,1.178,0.159,21,108.9335,22.16,22.95,39.3,0,110.9,13.16,22.98,348.8
"2010-08-06 01:40:30",46582,4.717,28.2,0.972,0.108,21.01,108.9187,22.12,22.96,39.13,0,110.9,13.16,22.95,350.2
"2010-08-06 01:41:00",46583,4.621,28.71,1.114,0.127,21.02,108.9098,22.09,22.94,39.14,0,110.9,13.16,22.92,350.7
"2010-08-06 01:41:30",46584,4.788,27.02,0.862,0.107,21,108.9042,22.08,22.94,39.11,0,110.9,13.16,22.91,349.0
"2010-08-06 01:42:00",46585,4.842,26.46,1.144,0.153,21.08,108.9039,22.08,22.94,39,0,110.9,13.16,22.91,348.5
"2010-08-06 01:42:30",46586,4.619,28.26,1.385,0.145,21.03,108.9039,22.08,22.93,39.04,0,110.9,13.16,22.91,350.3
"2010-08-06 01:43:00",46587,4.655,30.09,1.239,0.231,21.11,108.9039,22.08,22.93,38.94,0,110.9,13.16,22.91,352.1
"2010-08-06 01:43:30",46588,5.071,31.68,1.133,0.256,21.14,108.9039,22.08,22.93,38.75,0,110.9,13.17,22.91,353.7
"2010-08-06 01:44:00",46589,4.844,30.88,1.078,0.27,21.08,108.9039,22.08,22.94,38.84,0,110.9,13.16,22.91,352.9
"2010-08-06 01:44:30",46590,4.856,30.94,1.006,0.252,21.12,108.9039,22.08,22.95,38.72,0,110.9,13.16,22.91,352.9
"2010-08-06 01:45:00",46591,5.221,31.83,1.213,0.35,21.11,108.9039,22.08,22.95,38.54,0,110.9,13.16,22.91,353.8
"2010-08-06 01:45:30",46592,5.492,32.43,0.967,0.226,21.16,108.9039,22.08,22.95,38.36,0,110.9,13.16,22.91,354.4
"2010-08-06 01:46:00",46593,6.077,34.19,0.916,0.223,21.16,108.9039,22.08,22.96,38.23,0,110.9,13.16,22.91,356.2
"2010-08-06 01:46:30",46594,5.783,33.7,1.093,0.396,21.17,108.9044,22.08,22.96,38.13,0,110.9,13.16,22.91,355.7
"2010-08-06 01:47:00",46595,5.636,33.36,1.142,0.253,21.18,108.9087,22.09,22.98,37.95,0,110.9,13.16,22.92,355.4
"2010-08-06 01:47:30",46596,5.731,34.4,0.903,0.224,21.19,108.916,22.11,22.99,37.79,0,110.9,13.16,22.94,356.4
"2010-08-06 01:48:00",46597,5.782,34.98,0.75,0.2,21.19,108.9284,22.14,23.02,37.71,0,110.9,13.16,22.97,357.0
"2010-08-06 01:48:30",46598,5.71,34.76,1.069,0.224,21.22,108.938,22.17,23.03,37.68,0,110.9,13.17,23.00,356.8
"2010-08-06 01:49:00",46599,5.673,33.86,0.951,0.188,21.21,108.941,22.17,23.05,37.54,0,110.9,13.17,23.00,355.9